Wind_Speed
23 24 25 26 27 26 26 27 27 29 31 34 34 33 33 34 35 35 36 37 37 37 39 40 39 38 39 40 39 39 38 37 35 36 38 37 37 36 36 36 36 36 35
23 24 24 25 27 27 26 28 29 29 30 32 33 34 33 33 34 35 35 36 37 37 38 40 41 40 39 39 38 39 38 37 37 37 39 39 39 39 38 38 37 37 37
22 23 24 25 26 26 27 27 28 29 30 31 32 33 33 32 33 35 35 35 36 36 37 38 39 39 39 40 41 40 39 38 39 38 38 38 38 39 39 39 39 39 39
22 22 23 24 25 26 27 28 29 30 30 30 30 32 32 32 33 35 36 36 35 36 35 36 38 39 40 40 40 40 39 38 38 38 38 39 40 40 40 40 40 40 41
22 22 23 24 24 25 27 28 28 30 30 30 30 31 31 32 32 34 35 36 36 35 35 35 36 38 39 39 39 39 40 41 41 39 39 39 40 41 40 41 42 42 42
22 23 22 23 24 25 26 27 27 29 29 29 30 31 32 32 32 33 34 34 34 35 35 36 36 37 38 38 38 39 40 41 41 41 41 40 40 41 41 42 42 43 43
24 23 23 23 23 24 25 25 26 28 29 29 29 30 31 31 32 32 33 34 35 35 36 36 36 36 37 38 38 39 40 41 41 42 43 43 43 43 44 44 45 46 46
24 24 24 24 23 24 26 25 26 27 28 29 29 31 31 30 32 32 33 34 36 36 37 36 36 36 37 38 39 40 41 42 42 43 44 45 45 45 45 46 47 48 49
24 23 24 24 24 24 25 26 27 27 28 29 30 30 31 30 31 32 33 35 37 38 38 38 37 37 38 39 41 41 42 42 43 43 44 46 46 47 47 47 48 49 49
23 23 24 24 25 25 25 25 26 27 27 28 29 30 30 31 31 34 35 35 37 39 40 40 40 39 39 40 41 42 43 43 43 44 45 45 46 46 46 47 48 49 50
23 23 24 24 25 25 26 26 27 27 28 28 29 30 31 32 33 33 35 36 37 39 40 40 40 39 40 40 41 42 43 43 43 44 45 46 47 47 47 48 48 49 50
23 24 24 25 25 26 27 28 28 28 29 30 30 30 31 32 34 35 36 36 37 37 38 40 40 40 41 42 42 42 43 43 44 44 46 48 49 49 48 48 48 49 50
24 25 25 25 26 26 27 28 29 29 29 30 30 31 33 33 33 34 35 35 36 38 39 40 40 40 40 41 42 42 42 42 44 45 46 49 50 49 49 49 49 49 50
25 25 26 26 25 26 27 28 29 30 30 31 31 31 32 33 33 33 34 34 36 37 38 38 38 39 40 41 42 42 43 44 45 46 47 49 49 49 49 49 49 50 50
27 26 26 26 26 26 27 28 29 30 31 31 32 32 33 33 33 34 34 35 36 37 38 38 39 41 41 42 43 44 45 46 46 47 47 48 48 48 49 49 50 51 52
28 28 27 27 27 27 27 27 28 29 30 31 32 33 34 34 35 35 35 36 37 38 39 40 41 42 42 43 44 45 45 46 47 47 47 47 48 49 49 50 50 51 53
28 28 28 28 28 28 28 28 28 28 29 30 31 31 32 33 34 36 37 38 39 40 40 40 41 41 43 44 44 45 45 45 45 45 46 46 48 49 50 51 52 53 53
29 29 28 28 28 28 29 29 29 29 29 30 30 31 32 33 34 36 37 38 38 39 40 40 40 41 42 43 43 44 44 44 44 45 46 47 48 50 51 52 53 53 53
29 29 30 29 29 29 30 30 31 31 31 31 31 32 33 33 34 35 36 37 38 39 39 40 40 41 41 42 43 44 45 46 46 47 47 48 49 50 51 52 52 52 52
31 31 31 31 31 31 31 32 32 32 32 32 33 33 34 35 35 36 37 37 38 39 40 40 40 40 41 42 43 45 46 47 46 46 47 48 49 50 50 51 51 50 51
32 32 32 32 33 33 33 33 33 33 34 34 34 35 35 35 36 37 37 38 39 39 40 40 41 42 42 43 44 45 46 46 46 47 47 48 48 49 49 50 50 50 51
33 33 33 33 33 33 33 34 34 34 34 35 35 35 36 36 37 38 38 39 39 40 40 41 41 42 43 44 45 46 47 47 47 47 48 48 48 48 49 49 49 50 51
34 34 34 34 33 33 34 34 34 34 35 36 36 37 37 38 38 39 39 39 40 40 41 42 43 44 44 45 46 46 46 47 47 47 47 48 48 48 49 49 50 50 51
35 35 35 34 34 34 34 35 35 35 36 37 38 38 39 40 40 40 40 41 41 41 42 43 44 44 44 45 45 46 46 46 47 47 48 48 49 49 49 49 50 50 50
35 35 35 35 35 35 36 36 36 37 37 38 39 40 40 41 42 41 41 41 42 42 43 43 44 44 45 45 46 46 47 47 47 48 48 48 49 49 49 49 49 49 50
36 36 36 36 36 36 37 37 37 38 38 39 39 40 40 41 41 41 41 41 41 42 43 44 44 45 45 46 46 46 46 47 47 48 48 48 48 48 48 49 49 49 49
Wind_Direction
256 255 255 256 254 254 253 252 249 247 246 244 244 244 244 243 243 245 246 244 243 243 243 244 244 245 244 243 243 243 245 246 248 251 251 252 253 255 259 261 261 262 264
259 258 256 255 256 257 257 254 252 249 246 244 244 244 245 243 243 244 245 245 245 246 246 246 245 245 245 244 245 245 246 246 249 250 252 254 255 256 258 260 262 263 265
266 264 261 260 259 257 256 254 253 251 247 245 246 245 245 245 244 244 245 245 245 247 247 247 248 248 247 246 246 248 249 249 249 252 253 255 255 257 258 260 263 264 265
269 267 264 263 262 258 256 255 253 251 249 248 250 248 246 245 245 245 246 247 246 247 247 248 249 249 249 249 248 249 250 251 251 252 253 254 255 258 259 261 263 265 267
270 270 267 266 264 260 257 255 254 250 250 251 252 251 248 247 247 248 248 247 248 248 249 249 250 249 250 250 249 249 251 252 253 254 255 257 257 258 259 261 262 265 267
271 270 269 266 264 260 256 255 254 251 250 251 253 251 249 249 249 248 247 246 246 247 248 249 250 251 250 249 249 250 251 252 254 256 257 258 259 259 260 261 262 264 266
275 271 269 267 264 260 256 256 255 253 251 252 253 252 250 251 251 250 248 246 246 247 248 250 251 252 251 250 250 251 253 254 255 257 259 259 261 262 263 262 263 264 266
276 272 268 267 266 262 257 256 254 253 254 254 254 254 254 254 251 251 251 249 248 248 249 250 252 253 253 252 252 252 254 255 257 258 259 260 262 263 264 264 264 265 267
277 273 269 268 267 264 260 258 255 254 255 256 256 256 255 255 254 253 253 251 251 251 250 250 252 254 256 256 255 254 255 258 259 261 261 261 262 263 265 265 265 266 268
279 274 272 270 269 266 262 258 255 254 257 258 258 257 257 256 256 255 254 254 252 251 252 251 252 256 257 257 257 256 256 258 260 261 262 263 265 265 265 266 267 268 270
281 275 273 271 270 266 264 261 258 255 257 258 259 257 256 257 259 257 255 255 254 253 253 254 254 257 258 258 258 258 259 260 262 262 262 264 265 265 265 267 268 268 270
282 276 272 269 268 265 264 263 260 257 257 258 259 257 256 256 258 257 257 257 255 255 256 256 256 257 257 258 259 261 262 263 263 264 265 265 266 266 266 267 268 269 270
282 278 273 269 267 265 264 265 262 260 259 258 259 259 258 258 258 257 256 256 257 258 259 258 258 259 260 261 262 263 264 264 265 265 266 266 267 268 269 269 269 270 272
279 278 274 270 267 266 265 266 263 261 261 260 261 261 261 261 260 260 259 259 260 260 261 261 260 261 262 263 263 265 265 266 265 266 267 268 268 268 269 271 271 271 272
280 277 274 271 269 267 266 265 264 262 262 262 263 263 263 262 261 262 263 262 262 263 262 263 262 263 263 264 265 266 266 267 268 268 268 269 269 268 269 271 272 272 273
279 278 275 272 270 268 267 266 265 264 263 262 263 263 263 262 262 262 263 263 263 263 263 264 264 265 265 266 267 268 268 269 269 269 268 269 269 270 270 271 272 272 273
277 276 275 272 269 268 268 267 266 266 265 264 264 263 263 264 264 264 265 266 266 264 264 266 266 266 267 268 269 269 269 269 269 269 269 270 270 270 271 272 273 273 274
276 274 273 272 269 267 266 266 266 267 267 265 264 264 264 264 266 265 266 266 267 267 267 268 269 269 269 269 269 268 269 270 271 271 271 271 271 271 272 273 274 275 276
277 275 272 271 270 269 267 267 267 267 267 267 267 267 267 267 267 267 267 267 269 269 269 270 270 270 270 270 270 270 271 271 272 272 272 272 272 273 273 274 274 275 276
276 276 275 273 272 271 270 269 269 269 269 269 269 270 270 270 269 269 269 269 270 270 271 271 270 270 270 271 272 272 273 273 273 274 273 273 274 275 275 275 275 276 277
276 276 276 275 275 274 272 271 270 269 269 270 270 271 271 271 271 270 270 270 270 270 271 271 271 271 271 272 273 274 274 274 275 275 274 274 275 275 276 276 276 277 278
274 274 274 274 274 275 274 273 272 271 271 271 272 272 272 272 272 271 270 270 271 271 271 270 271 271 271 272 273 274 274 274 275 275 274 273 274 274 275 276 277 278 278
274 274 273 274 274 275 275 275 275 274 273 273 273 273 272 273 273 272 272 272 272 272 272 272 272 272 272 272 273 273 273 274 274 274 274 274 274 275 276 277 277 277 278
274 275 276 276 277 277 277 278 277 276 276 275 275 274 274 275 275 275 274 273 273 273 273 273 274 273 272 272 273 273 273 274 274 274 275 275 275 275 276 277 277 277 278
274 274 276 277 277 277 278 278 278 277 277 277 278 277 277 277 276 275 274 274 274 274 274 274 274 274 273 273 272 272 273 274 274 275 275 275 276 276 276 277 277 278 279
273 275 275 276 277 278 278 278 278 279 279 279 279 279 278 278 276 275 274 274 274 275 276 276 276 275 274 273 273 273 274 274 275 276 276 275 276 277 277 277 278 279 280
Height
5715 5715 5716 5716 5717 5718 5719 5720 5721 5723 5724 5726 5728 5730 5732 5735 5738 5740 5741 5744 5747 5749 5752 5754 5756 5759 5761 5764 5767 5770 5772 5775 5777 5779 5780 5781 5783 5785 5786 5786 5787 5787 5787
5708 5708 5709 5709 5710 5711 5712 5713 5714 5715 5717 5719 5720 5722 5725 5727 5730 5732 5733 5736 5738 5741 5743 5746 5748 5750 5752 5755 5758 5761 5764 5766 5768 5770 5772 5773 5775 5776 5777 5778 5778 5779 5779
5702 5702 5702 5703 5703 5704 5705 5706 5707 5708 5709 5711 5713 5715 5717 5719 5722 5724 5726 5728 5730 5733 5735 5737 5739 5741 5744 5746 5749 5752 5755 5757 5759 5761 5763 5764 5766 5767 5768 5768 5769 5770 5770
5697 5696 5696 5697 5697 5697 5698 5699 5700 5701 5703 5704 5706 5708 5710 5712 5714 5716 5718 5720 5722 5724 5726 5728 5731 5733 5735 5738 5740 5743 5746 5748 5750 5751 5753 5755 5757 5758 5759 5760 5760 5760 5760
5691 5691 5690 5690 5691 5691 5691 5691 5692 5694 5696 5698 5699 5701 5703 5705 5706 5708 5709 5712 5713 5715 5718 5720 5722 5725 5727 5730 5732 5734 5736 5739 5741 5742 5743 5745 5746 5748 5749 5750 5750 5751 5751
5685 5685 5684 5683 5683 5683 5684 5684 5686 5687 5689 5691 5692 5694 5696 5697 5698 5700 5701 5703 5706 5708 5710 5712 5714 5716 5719 5721 5723 5725 5727 5729 5731 5733 5734 5735 5736 5737 5738 5739 5740 5740 5740
5679 5678 5677 5677 5677 5677 5677 5678 5679 5681 5682 5684 5685 5686 5688 5689 5691 5692 5693 5695 5697 5700 5702 5704 5706 5708 5710 5712 5714 5716 5718 5720 5721 5723 5724 5725 5726 5727 5728 5728 5729 5729 5729
5673 5672 5671 5671 5671 5671 5671 5671 5672 5674 5675 5677 5678 5679 5680 5681 5683 5685 5686 5688 5689 5692 5694 5695 5697 5699 5701 5702 5704 5706 5708 5710 5711 5712 5713 5715 5715 5716 5716 5717 5718 5718 5718
5666 5665 5665 5664 5664 5664 5664 5665 5665 5667 5668 5670 5670 5671 5672 5673 5675 5676 5677 5679 5681 5683 5685 5686 5688 5690 5692 5693 5695 5696 5698 5699 5701 5702 5703 5703 5704 5704 5705 5705 5705 5706 5705
5660 5659 5659 5659 5658 5658 5658 5658 5659 5660 5661 5662 5663 5663 5664 5666 5666 5667 5668 5670 5672 5673 5676 5677 5679 5681 5682 5684 5685 5686 5688 5689 5690 5691 5691 5692 5692 5692 5693 5693 5693 5693 5693
5654 5653 5652 5652 5652 5652 5652 5652 5652 5652 5653 5653 5654 5655 5656 5657 5658 5659 5660 5661 5662 5664 5666 5668 5669 5671 5672 5674 5675 5676 5677 5678 5679 5679 5680 5680 5680 5680 5680 5680 5680 5680 5680
5647 5646 5645 5645 5645 5645 5645 5645 5644 5644 5645 5645 5646 5646 5647 5648 5649 5649 5650 5651 5653 5654 5656 5658 5659 5661 5662 5663 5664 5665 5666 5667 5667 5667 5668 5668 5668 5668 5667 5667 5667 5667 5667
5640 5639 5638 5637 5637 5637 5637 5637 5637 5637 5637 5637 5638 5638 5639 5640 5640 5640 5642 5643 5644 5645 5646 5648 5649 5650 5652 5653 5653 5654 5655 5655 5655 5655 5655 5655 5655 5655 5654 5654 5654 5654 5654
5633 5632 5631 5630 5630 5630 5629 5629 5629 5629 5629 5629 5629 5629 5630 5630 5631 5632 5633 5634 5634 5636 5637 5637 5638 5639 5641 5641 5642 5642 5642 5642 5642 5642 5642 5642 5642 5642 5641 5641 5641 5640 5640
5626 5624 5623 5622 5622 5621 5621 5621 5621 5621 5620 5620 5620 5621 5621 5621 5621 5622 5623 5624 5625 5625 5626 5627 5628 5628 5629 5629 5629 5630 5630 5630 5629 5629 5629 5629 5628 5628 5628 5628 5627 5626 5625
5618 5616 5615 5614 5614 5613 5613 5613 5613 5612 5612 5612 5612 5612 5612 5612 5612 5613 5613 5614 5614 5615 5616 5616 5617 5617 5617 5617 5617 5617 5617 5617 5616 5616 5615 5615 5614 5614 5614 5613 5613 5612 5611
5609 5608 5607 5606 5605 5605 5604 5604 5604 5604 5603 5603 5603 5603 5603 5603 5603 5603 5603 5603 5603 5604 5604 5605 5605 5605 5604 5604 5604 5604 5604 5604 5603 5603 5602 5601 5601 5600 5599 5599 5598 5597 5595
5600 5599 5598 5598 5597 5596 5596 5596 5595 5595 5595 5594 5594 5594 5594 5594 5594 5594 5593 5593 5592 5592 5593 5593 5592 5592 5592 5592 5591 5591 5591 5591 5590 5590 5588 5588 5587 5586 5585 5584 5583 5582 5580
5591 5591 5590 5589 5588 5588 5587 5587 5587 5586 5586 5586 5585 5585 5584 5584 5584 5584 5583 5582 5582 5582 5581 5581 5580 5580 5580 5579 5579 5578 5578 5578 5577 5576 5575 5574 5573 5572 5571 5570 5569 5568 5566
5582 5581 5581 5580 5580 5579 5578 5578 5577 5577 5577 5576 5575 5575 5574 5574 5573 5573 5572 5571 5571 5570 5570 5569 5568 5568 5567 5567 5566 5566 5565 5565 5564 5562 5561 5560 5558 5557 5555 5555 5554 5553 5551
5572 5571 5571 5570 5570 5569 5569 5568 5568 5567 5566 5566 5565 5564 5564 5563 5562 5562 5561 5560 5559 5558 5558 5557 5556 5555 5555 5554 5553 5552 5552 5551 5549 5548 5547 5545 5544 5543 5541 5540 5539 5538 5536
5561 5561 5560 5560 5559 5559 5558 5558 5557 5557 5556 5555 5555 5554 5553 5552 5551 5550 5549 5548 5547 5546 5545 5544 5544 5543 5542 5541 5540 5539 5538 5537 5536 5535 5533 5531 5530 5528 5527 5526 5525 5523 5521
5551 5550 5550 5549 5549 5548 5547 5547 5546 5546 5545 5544 5543 5543 5542 5540 5539 5538 5537 5536 5535 5534 5533 5532 5531 5530 5529 5528 5527 5526 5524 5523 5522 5521 5519 5517 5516 5514 5513 5511 5509 5508 5506
5540 5539 5539 5538 5538 5537 5536 5535 5535 5534 5534 5533 5532 5530 5529 5528 5527 5525 5524 5523 5522 5521 5520 5519 5518 5517 5516 5514 5513 5512 5510 5509 5508 5506 5505 5503 5502 5500 5498 5497 5495 5493 5491
5528 5528 5527 5527 5527 5526 5525 5524 5523 5523 5522 5521 5520 5518 5517 5515 5514 5513 5511 5510 5509 5508 5507 5506 5504 5503 5502 5501 5499 5498 5497 5495 5494 5492 5491 5489 5488 5486 5484 5482 5480 5478 5476
5517 5517 5516 5516 5515 5515 5514 5513 5512 5511 5510 5509 5508 5506 5505 5503 5501 5500 5499 5497 5496 5495 5493 5492 5491 5489 5488 5487 5485 5484 5482 5480 5479 5478 5477 5475 5473 5471 5469 5468 5466 5464 5462